Regional Weather Roundup
Issued by NWS Sterling, VA

Home | Current Version | Previous Version | Text Only | Print | Product List | Glossary Off
Versions: 1 2 3 4 5 6 7 8 9 10 11 12 13 14 15 16 17 18 19 20 21 22 23 24 25 26 27 28 29 30 31 32 33 34 35 36 37 38 39 40 41 42 43 44 45 46 47 48 49 50

000
ASUS41 KLWX 241210
RWRLWX

REGIONAL WEATHER ROUNDUP
NATIONAL WEATHER SERVICE BALTIMORE MD/WASHINGTON DC
700 AM EST SAT JAN 24 2015

Note: "FAIR" indicates few or no clouds below 12,000 feet
with no significant weather and/or obstructions to visibility.
 TC=TEMPERATURE CELSIUS

 * =Non NWS site. Station does not report precipitation (e.g. rain,
    snow, etc.), thunder, or fog.

DCZ001-MDZ009-015-VAZ040>042-051-053>054-241300-
WASHINGTON METRO

CITY           SKY/WX    TMP DP  RH WIND       PRES   REMARKS
WASHINGTON NAT CLOUDY    37  34  87 N12       29.60F
DULLES         CLOUDY    33  31  92 NW12      29.61S FOG     WCI  24
ANDREWS AFB    CLOUDY    34  34  99 N10       29.56S FOG     WCI  26
FT BELVOIR     CLOUDY    36  34  92 NW5       29.60F
QUANTICO       CLOUDY    36  33  89 N8        29.59F
COLLEGE PARK*  CLOUDY    36  36 100 NW5       29.59R
LEESBURG*      CLOUDY    34  34 100 N5        29.63R
MANASSAS*      CLOUDY    34  34 100 N7        29.61S
GAITHERSBURG*  CLOUDY    34  30  86 CALM      29.61F

$$

MDZ006>007-011-014-241300-
BALTIMORE METRO

CITY           SKY/WX    TMP DP  RH WIND       PRES   REMARKS
BWI AIRPORT    DRIZZLE   35  33  92 N6        29.57S FOG
MD SCIENCE CTR   N/A     34  33  96 MISG      29.59F
MARTIN STATE   DRIZZLE   36  36 100 W6        29.60F
ANNAPOLIS      CLOUDY    35  33  92 N8        29.57S FOG     WCI  29
FORT MEADE*    CLOUDY    34  32  93 NW6       29.60F

$$

MDZ012-015-019>023-241300-
MARYLAND EASTERN SHORE

CITY           SKY/WX    TMP DP  RH WIND       PRES   REMARKS
OCEAN CITY     CLOUDY    38  37  97 NE17G29   29.45F WCI  28
SALISBURY      CLOUDY    39  36  89 N10       29.49F
BAY BRIDGE AP*   N/A     34  34 100 N7        29.55F
CAMBRIDGE*     CLOUDY    37  36  93 N8        29.52F
EASTON*        CLOUDY    37  37 100 NE13G21   29.55F

$$

MDZ017>025-241300-
SOUTHERN MARYLAND

CITY           SKY/WX    TMP DP  RH WIND       PRES   REMARKS
PATUXENT RIVER LGT RAIN  36  33  89 N12       29.52F WCI  28
ST INIGOES     CLOUDY    36  50 100 N7G18     29.51F
LEONARDTOWN*   CLOUDY    34  32  93 N3        29.55S

$$

MDZ003>005-241300-
NORTH CENTRAL MARYLAND

CITY           SKY/WX    TMP DP  RH WIND       PRES   REMARKS
FREDERICK*     NOT AVBL
HAGERSTOWN APT CLOUDY    33  31  92 NW8       29.62S FOG     WCI  26
WESTMINSTER*   MIX PCPN  32  30  93 N6        29.58F

$$

MDZ501>502-241300-
WESTERN MARYLAND

CITY           SKY/WX    TMP DP  RH WIND       PRES   REMARKS
OAKLAND*       FOG       30 N/A N/A CALM      29.56R VSB<1/4
CUMBERLAND*    MOCLDY    34  34 100 CALM      29.67R

$$

VAZ025>031-241300-
SHENANDOAH VALLEY

CITY           SKY/WX    TMP DP  RH WIND       PRES   REMARKS
WINCHESTER*    LGT SNOW  34  32  93 CALM      29.60F
FRONT ROYAL*   CLOUDY    32  32 100 CALM      29.59F VSB 1/2
LURAY*         CLOUDY    34  34 100 NE3       29.59F FOG
NEW MARKET*    CLOUDY    32  32 100 CALM      29.58F
STAUNTON*      CLOUDY    33  32  96 CALM      29.60R FOG
WAYNESBORO*    CLOUDY    32  32  99 CALM      29.57S

$$

WVZ021-048>050-054>055-241300-
EASTERN WEST VIRGINIA PANHANDLE

CITY           SKY/WX    TMP DP  RH WIND       PRES   REMARKS
MARTINSBURG    CLOUDY    34  31  88 N5        29.61F FOG
PETERSBURG*    CLOUDY    33  33  98 CALM      29.60F FOG

$$

VAZ036>039-050-241300-
CENTRAL FOOTHILLS

CITY           SKY/WX    TMP DP  RH WIND       PRES   REMARKS
CHARLOTTESVILL CLOUDY    33  32  96 CALM      29.59F FOG
CULPEPER*      CLOUDY    36  34  93 N6        29.60F
ORANGE*        CLOUDY    34  34 100 N6        29.58F
GORDONSVILLE*  CLOUDY    33  32  95 CALM      29.59R
WARRENTON*     CLOUDY    35  35 100 N7        29.59F

$$

VAZ055>057-241300-
NORTH AND CENTRAL PIEDMONT

CITY           SKY/WX    TMP DP  RH WIND       PRES   REMARKS
FREDERICKSBRG* CLOUDY    36  36 100 NW6       29.56F
STAFFORD*      CLOUDY    34  50 100 N8        29.61F WCI  27

$$

NCZ024-NYZ072-PAZ021-071-VAZ022-071-241300-
OTHER REGIONAL OBSERVATIONS

CITY           SKY/WX    TMP DP  RH WIND       PRES   REMARKS
NEW YORK CITY  MIX PCPN  33  30  88 NE8       29.65F FOG     WCI  26
PHILADELPHIA   LGT RAIN  34  32  92 NE14      29.59F FOG     WCI  25
PITTSBURGH     CLOUDY    29  26  89 NW5       29.65S FOG
ROANOKE        DRIZZLE   35  32  88 NW6       29.59F
RICHMOND       LGT RAIN  36  35  96 N6        29.54F
RALEIGH        LGT RAIN  36  33  89 N5        29.55F

$$

ANZ530>537-241300-
MARINE OBSERVATIONS

STATION/POSITION TIME  TEMP    WIND        PRES
                       AIR SEA DIR/SP/G
                 (UTC) (F)     (DEG/KT/KT) (MB)
THOMAS PT LIGHT  1200   35 37  360/ 14/ 16 1001.9F
BALT KEY BRIDGE  1100   34     340/  6/  7 1001.7F
COVE POINT       1100   35      20/ 16/ 19  999.8F
LEWISETTA        1100   36 38   20/  6/ 10  999.1F
SOLOMONS ISLAND  1100      38                N/A
PINEY POINT      1100           30/  7/  9   N/A

$$




USA.gov is the U.S. government's official web portal to all federal, state and local government web resources and services.